WXM80 ListenWXM80 Stop

You find our weather info also at:

UK Metoffice

WeatherCloud

Weather Underground

Northeastern Weather Network

AWEKAS

Citizen Weather Observer Program (CWOP)

HAMweather, WeatherForYou, PWS Weather


Weather Underground History page Text

Daily Summary for February 28, 2018 Units:  English    Metric   Both
« Previous Day
Next Day »
Daily Weekly Monthly Yearly Custom
  High: Low: Average:
Temperature: 59.4 °F 37.5 °F 48.1 °F
Dew Point: 42.1 °F 29.1 °F 35.7 °F
Humidity: 77 % 42 % 63 %
Wind Speed: 8.2 mph 0.0 mph 3.2 mph
Wind Gust: 13.8 mph - -
Wind:- - SSW
Pressure: 29.94 in 29.60 in -
Precipitation: 0.00 in    
Historical Graphs
 
 
Tabular Data for February 28, 2018
Time Temperature Dew Point Pressure Wind Wind Speed Wind Gust Humidity Rainfall Rate (Hourly)
00:00 42.0 °F 31.8 °F 29.94 in South 3.3 mph 6.9 mph 67 % 0.00 in
00:05 41.9 °F 31.4 °F 29.94 in SSW 4.1 mph 6.9 mph 66 % 0.00 in
00:10 41.9 °F 31.4 °F 29.94 in SW 3.3 mph 11.5 mph 66 % 0.00 in
00:15 41.9 °F 31.4 °F 29.94 in SSW 5.6 mph 9.2 mph 66 % 0.00 in
00:20 41.9 °F 31.4 °F 29.94 in SSW 2.7 mph 8.1 mph 66 % 0.00 in
00:25 41.9 °F 31.4 °F 29.94 in WSW 2.4 mph 5.0 mph 66 % 0.00 in
00:30 41.9 °F 31.4 °F 29.94 in SSW 3.5 mph 7.0 mph 66 % 0.00 in
00:35 41.8 °F 31.3 °F 29.94 in South 3.1 mph 5.8 mph 66 % 0.00 in
00:40 41.8 °F 31.3 °F 29.94 in SSW 4.9 mph 9.2 mph 66 % 0.00 in
00:45 41.9 °F 31.4 °F 29.94 in South 5.0 mph 8.1 mph 66 % 0.00 in
00:50 41.9 °F 31.4 °F 29.94 in SW 4.2 mph 5.0 mph 66 % 0.00 in
00:56 42.0 °F 31.1 °F 29.94 in SSW 3.0 mph 9.0 mph 65 % 0.00 in
01:01 42.0 °F 31.1 °F 29.94 in SSW 2.2 mph 6.9 mph 65 % 0.00 in
01:06 42.0 °F 31.1 °F 29.94 in SW 4.5 mph 8.1 mph 65 % 0.00 in
01:11 42.0 °F 30.7 °F 29.94 in SSW 4.4 mph 8.1 mph 64 % 0.00 in
01:16 42.1 °F 31.2 °F 29.94 in SW 5.5 mph 8.1 mph 65 % 0.00 in
01:21 42.1 °F 31.2 °F 29.94 in WSW 6.9 mph 11.5 mph 65 % 0.00 in
01:26 42.1 °F 30.8 °F 29.94 in SSW 4.8 mph 6.9 mph 64 % 0.00 in
01:31 42.1 °F 31.2 °F 29.94 in SW 2.5 mph 4.6 mph 65 % 0.00 in
01:36 42.1 °F 31.2 °F 29.94 in SSW 4.4 mph 6.9 mph 65 % 0.00 in
01:41 42.0 °F 31.1 °F 29.94 in SSW 4.3 mph 6.0 mph 65 % 0.00 in
01:46 42.0 °F 31.1 °F 29.94 in SSW 6.1 mph 10.4 mph 65 % 0.00 in
01:51 42.0 °F 31.1 °F 29.94 in South 3.8 mph 9.0 mph 65 % 0.00 in
01:56 41.9 °F 31.0 °F 29.94 in SSW 4.5 mph 8.1 mph 65 % 0.00 in
02:01 41.9 °F 31.0 °F 29.94 in SSW 3.1 mph 6.0 mph 65 % 0.00 in
02:06 41.9 °F 31.0 °F 29.94 in SSW 3.1 mph 5.8 mph 65 % 0.00 in
02:11 41.8 °F 31.3 °F 29.94 in South 1.2 mph 3.5 mph 66 % 0.00 in
02:16 41.8 °F 30.9 °F 29.93 in SW 2.8 mph 10.4 mph 65 % 0.00 in
02:21 41.8 °F 30.9 °F 29.93 in SSW 1.8 mph 3.5 mph 65 % 0.00 in
02:26 41.7 °F 30.8 °F 29.93 in SSW 4.7 mph 6.9 mph 65 % 0.00 in
02:31 41.6 °F 30.7 °F 29.93 in SSW 2.4 mph 3.5 mph 65 % 0.00 in
02:37 41.5 °F 30.6 °F 29.93 in South 1.8 mph 5.0 mph 65 % 0.00 in
02:42 41.4 °F 30.5 °F 29.93 in SSW 3.0 mph 4.0 mph 65 % 0.00 in
02:47 41.3 °F 30.8 °F 29.92 in SW 2.3 mph 3.5 mph 66 % 0.00 in
02:52 41.2 °F 30.7 °F 29.92 in SSW 1.4 mph 5.8 mph 66 % 0.00 in
02:57 41.1 °F 30.6 °F 29.92 in SSW 0.9 mph 2.3 mph 66 % 0.00 in
03:02 41.0 °F 30.5 °F 29.92 in SSW 0.6 mph 3.5 mph 66 % 0.00 in
03:07 40.9 °F 30.4 °F 29.92 in SW 2.1 mph 3.5 mph 66 % 0.00 in
03:12 40.7 °F 30.2 °F 29.92 in SSW 2.3 mph 4.0 mph 66 % 0.00 in
03:17 40.5 °F 30.0 °F 29.91 in SSW 2.6 mph 5.8 mph 66 % 0.00 in
03:22 40.4 °F 29.9 °F 29.91 in SSW 3.4 mph 7.0 mph 66 % 0.00 in
03:27 40.3 °F 29.8 °F 29.91 in SSW 2.5 mph 4.6 mph 66 % 0.00 in
03:32 40.2 °F 29.7 °F 29.91 in SSW 2.8 mph 4.0 mph 66 % 0.00 in
03:37 40.1 °F 29.6 °F 29.91 in SSW 1.8 mph 3.5 mph 66 % 0.00 in
03:42 40.0 °F 29.6 °F 29.91 in SSW 3.9 mph 5.0 mph 66 % 0.00 in
03:47 39.9 °F 29.5 °F 29.91 in SSW 3.2 mph 4.6 mph 66 % 0.00 in
03:52 39.8 °F 29.4 °F 29.90 in SSW 1.3 mph 3.5 mph 66 % 0.00 in
03:57 39.8 °F 29.4 °F 29.90 in South 0.5 mph 4.6 mph 66 % 0.00 in
04:02 39.7 °F 29.3 °F 29.90 in SW 1.9 mph 3.5 mph 66 % 0.00 in
04:07 39.7 °F 29.6 °F 29.90 in SSW 1.3 mph 3.5 mph 67 % 0.00 in
04:13 39.6 °F 29.5 °F 29.91 in SW 2.0 mph 3.0 mph 67 % 0.00 in
04:18 39.5 °F 29.4 °F 29.91 in SSW 1.1 mph 3.5 mph 67 % 0.00 in
04:23 39.5 °F 29.4 °F 29.91 in SSW 0.4 mph 1.2 mph 67 % 0.00 in
04:28 39.3 °F 29.3 °F 29.91 in SSW 0.2 mph 2.3 mph 67 % 0.00 in
04:33 39.3 °F 29.3 °F 29.91 in Calm   1.2 mph 67 % 0.00 in
04:38 39.1 °F 29.1 °F 29.91 in SSW 0.2 mph 2.3 mph 67 % 0.00 in
04:43 39.0 °F 29.3 °F 29.91 in SSW 0.1 mph 1.2 mph 68 % 0.00 in
04:48 38.8 °F 29.1 °F 29.91 in Calm   2.3 mph 68 % 0.00 in
04:53 38.7 °F 29.4 °F 29.90 in Calm     69 % 0.00 in
04:58 38.5 °F 29.2 °F 29.90 in SSW 0.5 mph 2.3 mph 69 % 0.00 in
05:03 38.4 °F 29.1 °F 29.90 in SSW 0.7 mph 3.0 mph 69 % 0.00 in
05:08 38.2 °F 29.3 °F 29.90 in SSW 1.7 mph 3.5 mph 70 % 0.00 in
05:13 38.1 °F 29.5 °F 29.90 in SSW 2.2 mph 4.6 mph 71 % 0.00 in
05:18 38.1 °F 29.5 °F 29.90 in SSW 1.2 mph 2.3 mph 71 % 0.00 in
05:23 38.0 °F 29.4 °F 29.90 in SSW 1.7 mph 3.5 mph 71 % 0.00 in
05:28 38.0 °F 29.4 °F 29.90 in SSW 1.5 mph 3.5 mph 71 % 0.00 in
05:33 38.0 °F 29.8 °F 29.90 in SSW 1.0 mph 2.3 mph 72 % 0.00 in
05:38 37.9 °F 29.7 °F 29.90 in Calm     72 % 0.00 in
05:44 37.9 °F 29.7 °F 29.90 in SSW 0.2 mph 1.2 mph 72 % 0.00 in
05:48 37.9 °F 29.7 °F 29.90 in Calm     72 % 0.00 in
05:53 37.8 °F 29.9 °F 29.90 in Calm     73 % 0.00 in
05:59 37.8 °F 29.9 °F 29.89 in Calm     73 % 0.00 in
06:04 37.8 °F 29.9 °F 29.90 in Calm     73 % 0.00 in
06:09 37.7 °F 29.8 °F 29.89 in SSW 0.2 mph 2.3 mph 73 % 0.00 in
06:14 37.7 °F 30.2 °F 29.89 in SSW 1.0 mph 3.5 mph 74 % 0.00 in
06:19 37.6 °F 30.1 °F 29.89 in SSW 0.2 mph 2.3 mph 74 % 0.00 in
06:24 37.6 °F 30.4 °F 29.89 in SSW 0.3 mph 3.5 mph 75 % 0.00 in
06:29 37.5 °F 30.3 °F 29.88 in SSW 0.4 mph 2.3 mph 75 % 0.00 in
06:34 37.5 °F 30.3 °F 29.88 in SSW 1.3 mph 3.5 mph 75 % 0.00 in
06:39 37.5 °F 30.6 °F 29.88 in WSW 0.5 mph 3.5 mph 76 % 0.00 in
06:44 37.6 °F 31.0 °F 29.88 in SW 0.8 mph 3.5 mph 77 % 0.00 in
06:49 37.7 °F 31.1 °F 29.88 in South 0.2 mph 2.3 mph 77 % 0.00 in
06:54 37.8 °F 31.2 °F 29.87 in SSW 1.1 mph 4.6 mph 77 % 0.00 in
06:59 38.0 °F 31.4 °F 29.87 in SSW 3.4 mph 6.9 mph 77 % 0.00 in
07:04 38.3 °F 31.7 °F 29.88 in SW 1.0 mph 3.5 mph 77 % 0.00 in
07:09 38.6 °F 31.7 °F 29.87 in SW 2.2 mph 5.8 mph 76 % 0.00 in
07:14 38.9 °F 32.0 °F 29.87 in SW 0.7 mph 3.5 mph 76 % 0.00 in
07:19 39.2 °F 31.9 °F 29.87 in South 1.0 mph 3.5 mph 75 % 0.00 in
07:24 39.4 °F 31.8 °F 29.87 in SW 2.4 mph 4.6 mph 74 % 0.00 in
07:29 39.6 °F 31.7 °F 29.88 in SW 3.4 mph 7.0 mph 73 % 0.00 in
07:34 39.9 °F 31.6 °F 29.87 in SSW 2.2 mph 6.9 mph 72 % 0.00 in
07:39 40.1 °F 31.8 °F 29.87 in South 3.5 mph 3.5 mph 72 % 0.00 in
07:45 40.3 °F 31.6 °F 29.87 in SSW 2.0 mph 5.0 mph 71 % 0.00 in
07:50 40.5 °F 31.5 °F 29.88 in SSW 4.5 mph 8.1 mph 70 % 0.00 in
07:55 40.8 °F 31.8 °F 29.88 in SSW 4.8 mph 9.2 mph 70 % 0.00 in
08:00 41.1 °F 31.7 °F 29.88 in SSW 3.6 mph 6.9 mph 69 % 0.00 in
08:05 41.5 °F 31.7 °F 29.87 in SSW 3.6 mph 7.0 mph 68 % 0.00 in
08:10 41.9 °F 32.1 °F 29.87 in SSW 4.4 mph 8.1 mph 68 % 0.00 in
08:15 42.4 °F 32.6 °F 29.87 in SSW 4.0 mph 6.0 mph 68 % 0.00 in
08:20 42.9 °F 33.1 °F 29.86 in South 2.9 mph 5.8 mph 68 % 0.00 in
08:25 43.4 °F 33.2 °F 29.86 in SSW 3.6 mph 5.8 mph 67 % 0.00 in
08:30 43.8 °F 32.4 °F 29.87 in SSW 5.7 mph 6.9 mph 64 % 0.00 in
08:35 44.1 °F 32.3 °F 29.87 in SSW 6.6 mph 11.5 mph 63 % 0.00 in
08:40 44.5 °F 32.7 °F 29.87 in SSW 4.4 mph 7.0 mph 63 % 0.00 in
08:45 44.8 °F 32.6 °F 29.87 in South 7.3 mph 11.5 mph 62 % 0.00 in
08:50 45.2 °F 32.5 °F 29.87 in SSW 2.2 mph 4.6 mph 61 % 0.00 in
08:55 45.6 °F 32.9 °F 29.86 in SSW 3.5 mph 6.9 mph 61 % 0.00 in
09:00 46.0 °F 32.9 °F 29.86 in SSE 3.6 mph 10.4 mph 60 % 0.00 in
09:05 46.4 °F 33.7 °F 29.86 in SSW 4.7 mph 7.0 mph 61 % 0.00 in
09:10 47.1 °F 33.5 °F 29.86 in SSW 5.4 mph 10.4 mph 59 % 0.00 in
09:15 47.8 °F 34.2 °F 29.86 in WSW 4.5 mph 8.0 mph 59 % 0.00 in
09:21 48.6 °F 34.5 °F 29.85 in SW 4.0 mph 5.8 mph 58 % 0.00 in
09:26 49.3 °F 33.8 °F 29.85 in SSW 6.0 mph 12.0 mph 55 % 0.00 in
09:31 49.9 °F 34.3 °F 29.85 in SW 5.0 mph 9.0 mph 55 % 0.00 in
09:36 50.4 °F 34.4 °F 29.85 in SW 5.0 mph 9.0 mph 54 % 0.00 in
09:41 50.9 °F 34.8 °F 29.85 in WSW 5.3 mph 5.8 mph 54 % 0.00 in
09:46 51.0 °F 34.0 °F 29.85 in SW 7.0 mph 13.0 mph 52 % 0.00 in
09:51 51.2 °F 34.2 °F 29.85 in SW 7.0 mph 12.0 mph 52 % 0.00 in
09:56 51.0 °F 34.0 °F 29.84 in SSW 3.0 mph 12.0 mph 52 % 0.00 in
10:01 51.0 °F 34.0 °F 29.84 in West 1.9 mph 11.5 mph 52 % 0.00 in
10:06 51.1 °F 34.1 °F 29.83 in SW 5.3 mph 10.4 mph 52 % 0.00 in
10:11 51.3 °F 34.3 °F 29.83 in SW 5.0 mph 8.1 mph 52 % 0.00 in
10:16 51.6 °F 34.0 °F 29.83 in WSW 6.4 mph 11.5 mph 51 % 0.00 in
10:21 51.8 °F 33.7 °F 29.83 in SSW 3.6 mph 9.2 mph 50 % 0.00 in
10:26 52.2 °F 35.1 °F 29.82 in SW 6.3 mph 11.5 mph 52 % 0.00 in
10:31 52.6 °F 34.5 °F 29.82 in SW 6.4 mph 11.5 mph 50 % 0.00 in
10:36 53.1 °F 34.9 °F 29.82 in SSE 3.5 mph 6.9 mph 50 % 0.00 in
10:41 53.7 °F 36.0 °F 29.82 in South 4.9 mph 9.0 mph 51 % 0.00 in
10:46 54.3 °F 36.0 °F 29.82 in SW 5.6 mph 7.0 mph 50 % 0.00 in
10:51 54.8 °F 36.0 °F 29.82 in South 2.8 mph 4.6 mph 49 % 0.00 in
10:56 55.3 °F 35.4 °F 29.81 in South 1.3 mph 11.5 mph 47 % 0.00 in
11:01 55.8 °F 35.9 °F 29.81 in SSW 5.3 mph 11.5 mph 47 % 0.00 in
11:06 56.1 °F 35.0 °F 29.81 in SW 5.4 mph 11.5 mph 45 % 0.00 in
11:11 56.3 °F 35.8 °F 29.80 in SW 7.8 mph 13.8 mph 46 % 0.00 in
11:16 56.4 °F 35.9 °F 29.80 in WNW 4.5 mph 5.0 mph 46 % 0.00 in
11:22 56.8 °F 36.2 °F 29.80 in SSW 8.2 mph 10.4 mph 46 % 0.00 in
11:27 57.2 °F 36.0 °F 29.79 in SSW 3.4 mph 5.8 mph 45 % 0.00 in
11:32 57.1 °F 35.4 °F 29.79 in SSW 4.8 mph 12.7 mph 44 % 0.00 in
11:37 57.0 °F 35.3 °F 29.79 in South 4.3 mph 8.1 mph 44 % 0.00 in
11:42 57.1 °F 37.0 °F 29.78 in South 7.3 mph 11.5 mph 47 % 0.00 in
11:47 57.2 °F 36.0 °F 29.78 in South 3.9 mph 6.9 mph 45 % 0.00 in
11:52 57.2 °F 35.5 °F 29.78 in SW 6.7 mph 10.4 mph 44 % 0.00 in
11:57 57.0 °F 36.4 °F 29.78 in SSW 1.8 mph 4.6 mph 46 % 0.00 in
12:02 57.2 °F 36.0 °F 29.77 in SW 4.1 mph 11.5 mph 45 % 0.00 in
12:07 57.4 °F 36.2 °F 29.77 in WSW 3.9 mph 8.1 mph 45 % 0.00 in
12:12 57.4 °F 35.6 °F 29.77 in SSW 3.8 mph 8.1 mph 44 % 0.00 in
12:17 57.4 °F 35.6 °F 29.77 in SW 5.2 mph 11.5 mph 44 % 0.00 in
12:22 57.7 °F 36.5 °F 29.76 in South 5.8 mph 7.0 mph 45 % 0.00 in
12:27 57.9 °F 36.7 °F 29.75 in WSW 2.7 mph 8.0 mph 45 % 0.00 in
12:32 58.2 °F 36.9 °F 29.75 in SW 1.6 mph 3.5 mph 45 % 0.00 in
12:38 58.7 °F 36.8 °F 29.75 in SSW 2.6 mph 5.8 mph 44 % 0.00 in
12:43 59.0 °F 37.1 °F 29.75 in SSE 2.5 mph 5.8 mph 44 % 0.00 in
12:48 59.4 °F 37.5 °F 29.74 in WSW 5.0 mph 11.0 mph 44 % 0.00 in
12:53 59.4 °F 36.9 °F 29.74 in SSW 3.4 mph 6.9 mph 43 % 0.00 in
12:58 59.4 °F 36.3 °F 29.74 in SSE 2.8 mph 5.8 mph 42 % 0.00 in
13:03 59.3 °F 37.4 °F 29.74 in SW 8.0 mph 10.4 mph 44 % 0.00 in
13:08 59.1 °F 36.0 °F 29.73 in SSW 4.1 mph 10.4 mph 42 % 0.00 in
13:13 59.0 °F 37.7 °F 29.73 in SSW 7.8 mph 11.5 mph 45 % 0.00 in
13:18 59.0 °F 37.1 °F 29.73 in SSW 3.3 mph 7.0 mph 44 % 0.00 in
13:23 59.0 °F 36.5 °F 29.72 in South 1.5 mph 5.8 mph 43 % 0.00 in
13:28 59.0 °F 37.1 °F 29.72 in South 4.3 mph 4.6 mph 44 % 0.00 in
13:33 58.8 °F 37.5 °F 29.72 in South 5.0 mph 7.0 mph 45 % 0.00 in
13:38 58.9 °F 37.0 °F 29.72 in SW 6.8 mph 10.4 mph 44 % 0.00 in
13:44 58.6 °F 37.9 °F 29.71 in South 4.2 mph 9.0 mph 46 % 0.00 in
13:49 58.4 °F 38.2 °F 29.71 in SSW 1.6 mph 9.2 mph 47 % 0.00 in
13:54 58.5 °F 38.9 °F 29.71 in South 2.9 mph 5.8 mph 48 % 0.00 in
13:59 58.6 °F 39.0 °F 29.71 in SW 2.9 mph 6.9 mph 48 % 0.00 in
14:04 58.7 °F 38.5 °F 29.70 in SW 6.9 mph 10.4 mph 47 % 0.00 in
14:09 58.7 °F 38.5 °F 29.70 in South 5.7 mph 10.4 mph 47 % 0.00 in
14:14 58.5 °F 38.9 °F 29.70 in South 3.7 mph 9.0 mph 48 % 0.00 in
14:19 58.0 °F 38.4 °F 29.69 in South 5.6 mph 9.2 mph 48 % 0.00 in
14:24 57.8 °F 38.8 °F 29.69 in South 3.1 mph 9.2 mph 49 % 0.00 in
14:29 57.6 °F 39.1 °F 29.69 in SSE 4.8 mph 6.9 mph 50 % 0.00 in
14:34 57.2 °F 38.7 °F 29.69 in South 5.9 mph 11.5 mph 50 % 0.00 in
14:39 56.8 °F 38.9 °F 29.68 in South 0.9 mph 5.8 mph 51 % 0.00 in
14:44 56.4 °F 38.5 °F 29.68 in SE 4.9 mph 11.5 mph 51 % 0.00 in
14:49 56.1 °F 38.2 °F 29.68 in South 3.6 mph 5.8 mph 51 % 0.00 in
14:54 56.0 °F 39.1 °F 29.68 in South 4.4 mph 8.0 mph 53 % 0.00 in
15:00 55.9 °F 38.5 °F 29.68 in SSW 2.8 mph 6.0 mph 52 % 0.00 in
15:05 55.8 °F 38.4 °F 29.67 in SSW 3.1 mph 4.6 mph 52 % 0.00 in
15:10 55.8 °F 38.4 °F 29.67 in South 4.2 mph 6.9 mph 52 % 0.00 in
15:15 55.7 °F 38.3 °F 29.67 in SSE 1.6 mph 5.0 mph 52 % 0.00 in
15:16 55.7 °F 38.8 °F 29.67 in SE 3.5 mph 7.0 mph 53 % 0.00 in
15:21 55.7 °F 38.8 °F 29.67 in SE 3.9 mph 5.8 mph 53 % 0.00 in
15:26 55.7 °F 38.8 °F 29.67 in SSE 3.8 mph 6.9 mph 53 % 0.00 in
15:31 55.5 °F 38.6 °F 29.67 in SSE 2.3 mph 7.0 mph 53 % 0.00 in
15:36 55.4 °F 39.0 °F 29.67 in SE 4.1 mph 6.0 mph 54 % 0.00 in
15:41 55.3 °F 38.9 °F 29.67 in South 0.2 mph 2.3 mph 54 % 0.00 in
15:46 55.2 °F 38.8 °F 29.67 in South 3.3 mph 5.8 mph 54 % 0.00 in
15:51 55.2 °F 38.8 °F 29.67 in South 3.9 mph 5.8 mph 54 % 0.00 in
15:56 55.1 °F 39.2 °F 29.66 in SSE 3.0 mph 8.0 mph 55 % 0.00 in
16:01 55.0 °F 39.1 °F 29.66 in SSE 3.2 mph 5.0 mph 55 % 0.00 in
16:07 54.9 °F 39.0 °F 29.66 in South 2.4 mph 8.0 mph 55 % 0.00 in
16:12 54.8 °F 38.9 °F 29.66 in South 5.1 mph 8.1 mph 55 % 0.00 in
16:17 54.6 °F 39.2 °F 29.66 in SSE 4.8 mph 8.1 mph 56 % 0.00 in
16:22 54.4 °F 39.5 °F 29.65 in ESE 3.8 mph 7.0 mph 57 % 0.00 in
16:27 54.3 °F 39.4 °F 29.65 in SSE 1.7 mph 4.0 mph 57 % 0.00 in
16:32 54.2 °F 39.7 °F 29.65 in South 4.9 mph 6.9 mph 58 % 0.00 in
16:37 54.1 °F 39.6 °F 29.65 in South 1.2 mph 3.5 mph 58 % 0.00 in
16:42 54.0 °F 39.5 °F 29.65 in SSE 3.2 mph 6.0 mph 58 % 0.00 in
16:47 53.9 °F 39.9 °F 29.64 in South 1.3 mph 3.5 mph 59 % 0.00 in
16:52 53.8 °F 39.8 °F 29.64 in SSE 3.0 mph 4.0 mph 59 % 0.00 in
16:57 53.6 °F 40.0 °F 29.64 in SSE 2.2 mph 4.6 mph 60 % 0.00 in
17:02 53.3 °F 39.8 °F 29.64 in South 1.8 mph 6.9 mph 60 % 0.00 in
17:07 53.1 °F 40.0 °F 29.64 in South 4.5 mph 5.0 mph 61 % 0.00 in
17:13 52.8 °F 40.1 °F 29.64 in SSE 5.2 mph 9.2 mph 62 % 0.00 in
17:18 52.4 °F 39.8 °F 29.64 in SSE 2.0 mph 4.6 mph 62 % 0.00 in
17:23 52.3 °F 40.1 °F 29.63 in SSE 4.5 mph 9.0 mph 63 % 0.00 in
17:28 51.9 °F 40.1 °F 29.64 in SSW 3.6 mph 6.0 mph 64 % 0.00 in
17:33 51.5 °F 40.1 °F 29.63 in South 2.0 mph 3.5 mph 65 % 0.00 in
17:38 51.2 °F 39.8 °F 29.64 in South 2.2 mph 6.0 mph 65 % 0.00 in
17:43 51.0 °F 40.0 °F 29.64 in South 1.9 mph 6.9 mph 66 % 0.00 in
17:48 50.6 °F 39.7 °F 29.64 in SSE 2.7 mph 4.6 mph 66 % 0.00 in
17:53 50.2 °F 39.7 °F 29.64 in South 4.7 mph 8.1 mph 67 % 0.00 in
17:58 49.9 °F 39.8 °F 29.64 in SSE 4.3 mph 5.8 mph 68 % 0.00 in
18:03 49.4 °F 39.7 °F 29.64 in SSW 4.9 mph 7.0 mph 69 % 0.00 in
18:08 49.1 °F 39.7 °F 29.64 in South 5.7 mph 10.0 mph 70 % 0.00 in
18:13 48.8 °F 39.4 °F 29.64 in South 2.7 mph 5.8 mph 70 % 0.00 in
18:18 48.6 °F 39.6 °F 29.64 in South 2.5 mph 6.9 mph 71 % 0.00 in
18:23 48.3 °F 39.3 °F 29.64 in SW 3.8 mph 8.1 mph 71 % 0.00 in
18:28 48.1 °F 39.5 °F 29.64 in South 0.7 mph 6.9 mph 72 % 0.00 in
18:33 47.9 °F 39.7 °F 29.64 in SSW 3.3 mph 6.9 mph 73 % 0.00 in
18:38 47.7 °F 39.5 °F 29.64 in South 2.2 mph 6.9 mph 73 % 0.00 in
18:44 47.4 °F 39.5 °F 29.64 in SSW 3.2 mph 6.9 mph 74 % 0.00 in
18:49 47.3 °F 39.4 °F 29.64 in SSW 4.7 mph 6.0 mph 74 % 0.00 in
18:54 47.1 °F 39.6 °F 29.63 in SSW 2.5 mph 5.8 mph 75 % 0.00 in
18:59 46.9 °F 39.4 °F 29.63 in South 4.5 mph 10.4 mph 75 % 0.00 in
19:04 46.8 °F 39.6 °F 29.63 in SSW 4.2 mph 6.9 mph 76 % 0.00 in
19:09 46.6 °F 39.4 °F 29.63 in SSW 3.2 mph 6.0 mph 76 % 0.00 in
19:14 46.6 °F 39.4 °F 29.63 in SSW 3.1 mph 7.0 mph 76 % 0.00 in
19:19 46.5 °F 39.7 °F 29.63 in SW 3.1 mph 6.0 mph 77 % 0.00 in
19:24 46.5 °F 39.7 °F 29.63 in SSW 5.1 mph 7.0 mph 77 % 0.00 in
19:29 46.5 °F 39.7 °F 29.63 in SW 2.6 mph 5.8 mph 77 % 0.00 in
19:34 46.5 °F 39.7 °F 29.64 in SSW 3.6 mph 6.9 mph 77 % 0.00 in
19:39 46.6 °F 39.8 °F 29.64 in SSW 5.2 mph 6.0 mph 77 % 0.00 in
19:44 46.7 °F 39.9 °F 29.64 in SSW 3.6 mph 5.8 mph 77 % 0.00 in
19:50 46.8 °F 39.6 °F 29.64 in SSW 4.2 mph 8.1 mph 76 % 0.00 in
19:55 47.0 °F 39.8 °F 29.63 in SW 3.1 mph 6.0 mph 76 % 0.00 in
20:00 47.1 °F 39.9 °F 29.62 in SW 2.3 mph 5.8 mph 76 % 0.00 in
20:05 47.3 °F 40.1 °F 29.62 in SSW 3.4 mph 5.8 mph 76 % 0.00 in
20:10 47.4 °F 39.9 °F 29.62 in SSW 2.9 mph 7.0 mph 75 % 0.00 in
20:15 47.6 °F 40.1 °F 29.62 in SW 4.6 mph 6.9 mph 75 % 0.00 in
20:20 47.8 °F 40.3 °F 29.63 in South 4.3 mph 6.9 mph 75 % 0.00 in
20:25 48.0 °F 40.1 °F 29.63 in South 4.3 mph 8.1 mph 74 % 0.00 in
20:30 48.3 °F 40.4 °F 29.62 in SSW 3.2 mph 6.9 mph 74 % 0.00 in
20:35 48.5 °F 40.6 °F 29.63 in SSW 4.2 mph 5.0 mph 74 % 0.00 in
20:40 48.7 °F 40.8 °F 29.63 in South 2.0 mph 3.5 mph 74 % 0.00 in
20:45 48.8 °F 40.5 °F 29.63 in SSW 4.7 mph 6.9 mph 73 % 0.00 in
20:50 48.9 °F 40.6 °F 29.63 in SW 1.8 mph 4.6 mph 73 % 0.00 in
20:55 49.0 °F 40.7 °F 29.63 in SW 2.6 mph 4.6 mph 73 % 0.00 in
21:00 49.1 °F 40.8 °F 29.63 in South 3.4 mph 5.0 mph 73 % 0.00 in
21:05 49.1 °F 40.8 °F 29.63 in SW 3.5 mph 4.6 mph 73 % 0.00 in
21:10 49.3 °F 40.7 °F 29.63 in SSW 3.0 mph 6.9 mph 72 % 0.00 in
21:16 49.4 °F 40.7 °F 29.62 in SSW 3.0 mph 5.0 mph 72 % 0.00 in
21:21 49.6 °F 40.9 °F 29.62 in SSW 3.0 mph 7.0 mph 72 % 0.00 in
21:26 49.8 °F 41.1 °F 29.61 in SSW 3.0 mph 7.0 mph 72 % 0.00 in
21:31 49.9 °F 41.6 °F 29.61 in SSW 5.0 mph 8.0 mph 73 % 0.00 in
21:36 50.1 °F 41.8 °F 29.62 in SSW 2.0 mph 10.0 mph 73 % 0.00 in
21:41 50.1 °F 41.4 °F 29.62 in SSW 2.0 mph 7.0 mph 72 % 0.00 in
21:46 50.2 °F 41.5 °F 29.62 in SW 1.7 mph 4.6 mph 72 % 0.00 in
21:51 50.3 °F 41.6 °F 29.61 in SSW 3.0 mph 5.0 mph 72 % 0.00 in
21:56 50.4 °F 41.7 °F 29.61 in SSW 3.0 mph 7.0 mph 72 % 0.00 in
22:01 50.5 °F 41.4 °F 29.61 in South 1.7 mph 9.2 mph 71 % 0.00 in
22:06 50.5 °F 41.4 °F 29.61 in SW 2.0 mph 9.0 mph 71 % 0.00 in
22:11 50.6 °F 41.2 °F 29.61 in SSW 2.0 mph 7.0 mph 70 % 0.00 in
22:16 50.7 °F 41.3 °F 29.61 in SSW 1.0 mph 7.0 mph 70 % 0.00 in
22:21 50.8 °F 41.0 °F 29.61 in SW 3.5 mph 4.0 mph 69 % 0.00 in
22:26 50.9 °F 41.1 °F 29.60 in SW 2.0 mph 5.0 mph 69 % 0.00 in
22:31 51.0 °F 41.2 °F 29.61 in SW 2.0 mph 7.0 mph 69 % 0.00 in
22:36 51.1 °F 41.3 °F 29.61 in SW 2.0 mph 8.0 mph 69 % 0.00 in
22:41 51.2 °F 41.4 °F 29.61 in SW 2.0 mph 5.0 mph 69 % 0.00 in
22:46 51.3 °F 41.5 °F 29.61 in SSW 1.0 mph 5.0 mph 69 % 0.00 in
22:51 51.3 °F 41.1 °F 29.62 in SSW 2.0 mph 5.0 mph 68 % 0.00 in
22:56 51.4 °F 41.6 °F 29.62 in SW 1.3 mph 4.6 mph 69 % 0.00 in
23:01 51.4 °F 41.6 °F 29.61 in SSW 0.7 mph 5.8 mph 69 % 0.00 in
23:06 51.3 °F 41.5 °F 29.61 in SSW 1.8 mph 4.0 mph 69 % 0.00 in
23:11 51.3 °F 41.5 °F 29.61 in SW 2.6 mph 4.0 mph 69 % 0.00 in
23:16 51.2 °F 41.4 °F 29.61 in WSW 1.6 mph 6.0 mph 69 % 0.00 in
23:21 51.2 °F 41.4 °F 29.61 in SSW 2.6 mph 4.6 mph 69 % 0.00 in
23:26 51.1 °F 41.3 °F 29.61 in South 3.8 mph 5.8 mph 69 % 0.00 in
23:31 51.0 °F 41.6 °F 29.61 in SW 2.8 mph 3.5 mph 70 % 0.00 in
23:36 51.0 °F 41.6 °F 29.61 in SSW 0.6 mph 5.0 mph 70 % 0.00 in
23:41 50.9 °F 41.8 °F 29.61 in SSW 1.4 mph 3.5 mph 71 % 0.00 in
23:46 50.9 °F 41.8 °F 29.61 in SW 3.3 mph 5.8 mph 71 % 0.00 in
23:51 50.8 °F 42.1 °F 29.60 in SSW 3.4 mph 6.0 mph 72 % 0.00 in
23:57 50.8 °F 42.1 °F 29.61 in SSW 2.6 mph 5.0 mph 72 % 0.00 in
Crab Meadow Weather
Compliments of Weather Underground - 3 mb

Script developed by  Jim McMurry - jmcmurry@mwt.net Adapted for the template by  Wim van der Kuil - Leuven-Template.eu

Lightning: At any given moment, there are about 1,800 thunderstorms happening around the world. Approximately 100 lightning bolts strike the earth every second.